FW9285 Weather Reports


Display with metric or nautical units.
time (UTC)temp
F
wind
direction
speed
MPH
gust
MPH
rain 1hr
in
rain 24hr
in
rain mn
in
humidity
%
barometer
mb
20260903202711 99 128 2.0 6.0 0.00 0.00 0.00 38 1011.2
20260903201711 97 155 3.0 11.0 0.00 0.00 0.00 39 1011.5
20260903200712 97 150 2.0 6.0 0.00 0.00 0.00 39 1011.5
20260903195711 98 216 1.0 8.0 0.00 0.00 0.00 38 1011.7
20260903194712 98 154 3.0 9.0 0.00 0.00 0.00 40 1011.8
20260903192712 97 150 6.0 7.0 0.00 0.00 0.00 39 1012.0
20260903191712 96 142 5.0 6.0 0.00 0.00 0.00 41 1012.2
20260903190712 94 201 0.0 8.0 0.00 0.00 0.00 43 1012.5
20260903185711 95 139 5.0 9.0 0.00 0.00 0.00 43 1012.6
20260903184711 96 224 4.0 6.0 0.00 0.00 0.00 42 1012.6
20260903183711 96 154 3.0 6.0 0.00 0.00 0.00 43 1012.8
20260903182711 96 152 3.0 6.0 0.00 0.00 0.00 43 1012.9
20260903181711 94 218 2.0 9.0 0.00 0.00 0.00 44 1013.4
20260903180711 93 210 0.0 7.0 0.00 0.00 0.00 45 1013.5
20260903175711 93 174 2.0 8.0 0.00 0.00 0.00 46 1013.3
20260903174711 93 269 0.0 6.0 0.00 0.00 0.00 45 1013.6
20260903173711 94 148 3.0 6.0 0.00 0.00 0.00 45 1013.8
20260903172711 92 184 2.0 8.0 0.00 0.00 0.00 48 1013.9
20260903171710 95 200 2.0 8.0 0.00 0.00 0.00 45 1013.6
20260903170712 93 154 4.0 6.0 0.00 0.00 0.00 46 1013.8
20260903164711 91 131 4.0 5.0 0.00 0.00 0.00 50 1013.9
20260903163711 91 147 0.0 7.0 0.00 0.00 0.00 50 1013.9
20260903162710 89 166 2.0 4.0 0.00 0.00 0.00 53 1013.9
20260903160713 86 165 2.0 6.0 0.00 0.00 0.00 59 1013.8
20260903155711 86 161 3.0 6.0 0.00 0.00 0.00 59 1014.0
20260903154711 87 156 2.0 6.0 0.00 0.00 0.00 57 1014.1
20260903153711 86 159 2.0 7.0 0.00 0.00 0.00 60 1014.3
20260903152711 86 188 2.0 4.0 0.00 0.00 0.00 60 1013.9
20260903151711 84 204 2.0 5.0 0.00 0.00 0.00 63 1013.9
20260903150711 84 167 2.0 4.0 0.00 0.00 0.00 65 1014.1
20260903145711 84 159 2.0 3.0 0.00 0.00 0.00 65 1014.0
20260903144711 82 215 2.0 3.0 0.00 0.00 0.00 67 1014.0
20260903143711 81 220 0.0 3.0 0.00 0.00 0.00 68 1013.8
20260903141711 81 213 3.0 3.0 0.00 0.00 0.00 69 1014.1
20260903135711 81 192 2.0 4.0 0.00 0.00 0.00 71 1013.8
20260903134710 81 170 2.0 4.0 0.00 0.00 0.00 72 1013.6
20260903133711 82 227 2.0 5.0 0.00 0.00 0.00 69 1013.4
20260903132711 82 257 1.0 5.0 0.00 0.00 0.00 68 1013.3
20260903131711 82 232 2.0 5.0 0.00 0.00 0.00 68 1013.0
20260903130712 82 226 2.0 4.0 0.00 0.00 0.00 68 1013.1
20260903125711 82 235 3.0 6.0 0.00 0.00 0.00 67 1013.0
20260903124711 82 232 2.0 8.0 0.00 0.00 0.00 67 1012.8
20260903123711 82 238 4.0 6.0 0.00 0.00 0.00 67 1012.8
20260903122710 82 238 2.0 4.0 0.00 0.00 0.00 66 1012.7
20260903121711 82 277 1.0 6.0 0.00 0.00 0.00 66 1012.5
20260903120711 82 214 4.0 5.0 0.00 0.00 0.00 66 1012.2
20260903113711 82 303 0.0 2.0 0.00 0.00 0.00 67 1012.1
20260903112711 82 218 1.0 3.0 0.00 0.00 0.00 66 1012.4
20260903111711 83 220 0.0 3.0 0.00 0.00 0.00 66 1012.1
20260903110711 83 209 2.0 3.0 0.00 0.00 0.00 66 1012.3
20260903105711 83 193 2.0 3.0 0.00 0.00 0.00 66 1012.0
20260903104711 83 201 1.0 3.0 0.00 0.00 0.00 65 1012.0
20260903103711 82 197 2.0 3.0 0.00 0.00 0.00 66 1012.1
20260903102710 82 189 2.0 2.0 0.00 0.00 0.00 66 1012.1
20260903095702 82 204 2.0 3.0 0.00 0.00 0.00 67 1012.3
20260903094703 82 197 2.0 4.0 0.00 0.00 0.00 65 1012.3
20260903093702 83 224 4.0 6.0 0.00 0.00 0.00 64 1012.0
20260903091703 83 233 2.0 6.0 0.00 0.00 0.00 64 1012.1
20260903090705 83 238 4.0 6.0 0.00 0.00 0.00 63 1012.2
20260903085703 83 210 1.0 6.0 0.00 0.00 0.00 63 1012.2
20260903084702 83 265 1.0 5.0 0.00 0.00 0.00 63 1012.0
20260903083702 83 239 2.0 4.0 0.00 0.00 0.00 63 1012.0
20260903082703 83 198 2.0 4.0 0.00 0.00 0.00 63 1012.2
20260903081702 83 227 1.0 4.0 0.00 0.00 0.00 62 1012.0
20260903075707 84 191 1.0 5.0 0.00 0.00 0.00 59 1012.3
20260903074702 85 219 2.0 4.0 0.00 0.00 0.00 58 1012.1
20260903073705 85 210 3.0 5.0 0.00 0.00 0.00 57 1012.2
20260903072702 85 229 2.0 6.0 0.00 0.00 0.00 57 1012.2
20260903071705 85 203 4.0 4.0 0.00 0.00 0.00 56 1012.2
20260903070704 85 182 2.0 4.0 0.00 0.00 0.00 56 1012.2
20260903064702 86 242 2.0 4.0 0.00 0.00 0.00 55 1012.3
20260903063702 87 141 2.0 4.0 0.00 0.00 0.00 54 1012.1
20260903062702 87 211 4.0 6.0 0.00 0.00 0.00 53 1012.0
20260903061702 87 245 3.0 6.0 0.00 0.00 0.00 54 1012.2
20260903060705 89 238 1.0 4.0 0.00 0.00 0.00 48 1011.7
20260903055703 89 263 3.0 4.0 0.00 0.00 0.00 48 1011.8
20260903054702 89 233 0.0 4.0 0.00 0.00 0.00 47 1011.6
20260903053703 89 246 2.0 3.0 0.00 0.00 0.00 48 1011.6
20260903052703 90 258 2.0 4.0 0.00 0.00 0.00 47 1011.6
20260903051702 90 267 2.0 5.0 0.00 0.00 0.00 47 1011.9
20260903050705 90 272 0.0 5.0 0.00 0.00 0.00 47 1011.7
20260903045703 91 285 3.0 5.0 0.00 0.00 0.00 46 1011.6
20260903044702 91 271 2.0 5.0 0.00 0.00 0.00 47 1011.8
20260903043703 91 267 1.0 5.0 0.00 0.00 0.00 47 1011.7
20260903042703 91 221 3.0 7.0 0.00 0.00 0.00 47 1011.8
20260903041702 90 294 0.0 11.0 0.00 0.00 0.00 47 1011.9
20260903040707 90 237 5.0 12.0 0.00 0.00 0.00 47 1011.9
20260903034702 93 239 4.0 8.0 0.00 0.00 0.00 41 1011.7
20260903031702 93 263 0.0 2.0 0.00 0.00 0.00 40 1010.9
20260903030704 93 205 0.0 0.0 0.00 0.00 0.00 41 1010.6
20260903024659 94 224 0.0 0.0 0.00 0.00 0.00 40 1010.5
20260903023659 94 89 0.0 1.0 0.00 0.00 0.00 40 1010.5
20260903022659 94 173 0.0 1.0 0.00 0.00 0.00 39 1010.5
20260903021659 95 119 0.0 0.0 0.00 0.00 0.00 38 1010.3
20260903020659 96 333 0.0 3.0 0.00 0.00 0.00 38 1010.2
20260903015659 96 81 0.0 2.0 0.00 0.00 0.00 36 1010.3
20260903014659 96 116 0.0 3.0 0.00 0.00 0.00 36 1010.4
20260903011659 98 246 0.0 5.0 0.00 0.00 0.00 32 1010.1
20260903010701 98 246 2.0 3.0 0.00 0.00 0.00 33 1010.1
20260903005659 101 169 1.0 4.0 0.00 0.00 0.00 31 1010.1
20260903004659 101 341 0.0 3.0 0.00 0.00 0.00 31 1010.0
20260903003701 100 115 0.0 4.0 0.00 0.00 0.00 31 1010.0
20260903002659 101 242 2.0 5.0 0.00 0.00 0.00 30 1010.0
20260903001659 102 219 2.0 6.0 0.00 0.00 0.00 30 1010.0
20260903000659 101 349 4.0 4.0 0.00 0.00 0.00 31 1010.1
20260902235659 102 349 2.0 6.0 0.00 0.00 0.00 31 1010.0
20260902234659 102 325 5.0 10.0 0.00 0.00 0.00 31 1010.2
20260902233659 103 7 3.0 4.0 0.00 0.00 0.00 31 1010.5
20260902232701 104 235 2.0 5.0 0.00 0.00 0.00 31 1010.3
20260902231659 102 128 2.0 4.0 0.00 0.00 0.00 33 1010.7
20260902230659 100 34 1.0 3.0 0.00 0.00 0.00 33 1010.6
20260902225659 101 13 2.0 6.0 0.00 0.00 0.00 33 1010.9
20260902223659 103 211 1.0 4.0 0.00 0.00 0.00 32 1010.8
20260902222659 102 117 0.0 7.0 0.00 0.00 0.00 33 1011.1
20260902221659 101 253 4.0 10.0 0.00 0.00 0.00 34 1011.2
20260902220659 101 156 1.0 8.0 0.00 0.00 0.00 33 1011.5
20260902215659 101 192 0.0 12.0 0.00 0.00 0.00 34 1011.7
20260902214700 102 190 2.0 7.0 0.00 0.00 0.00 33 1011.7
20260902213659 101 188 0.0 10.0 0.00 0.00 0.00 34 1011.7
20260902212659 102 159 2.0 5.0 0.00 0.00 0.00 34 1012.0
20260902211702 101 261 0.0 9.0 0.00 0.00 0.00 35 1012.2
20260902210700 101 292 1.0 11.0 0.00 0.00 0.00 35 1012.4
20260902205659 100 112 2.0 7.0 0.00 0.00 0.00 36 1012.2
20260902204659 99 293 2.0 6.0 0.00 0.00 0.00 37 1012.4
20260902203659 98 340 2.0 5.0 0.00 0.00 0.00 38 1012.6